Fecha, hora, temperatura, viento dirección y velocidad, humedad y presión.

  • 11-04-2019 21:00:00 | 4.00°C | Sudoeste |4.00 km/h | 93.00% | 0.00 hPa
  • 11-04-2019 20:00:00 | 4.70°C | Noroeste |5.00 km/h | 93.00% | 0.00 hPa
  • 11-04-2019 19:00:00 | 5.30°C | Noroeste |6.00 km/h | 92.00% | 0.00 hPa
  • 11-04-2019 18:00:00 | 5.20°C | Sur |4.00 km/h | 91.00% | 0.00 hPa
  • 11-04-2019 17:00:00 | 4.70°C | Sudeste |7.00 km/h | 92.00% | 0.00 hPa
  • 11-04-2019 16:00:00 | 4.70°C | Norte |6.00 km/h | 96.00% | 0.00 hPa
  • 11-04-2019 15:00:00 | 4.70°C | Noroeste |4.00 km/h | 97.00% | 0.00 hPa
  • 11-04-2019 14:00:00 | 4.50°C | Nordeste |3.00 km/h | 98.00% | 0.00 hPa
  • 11-04-2019 13:00:00 | 4.60°C | Nordeste |6.00 km/h | 97.00% | 0.00 hPa
  • 11-04-2019 12:00:00 | 4.10°C | Oeste |6.00 km/h | 98.00% | 0.00 hPa
  • 11-04-2019 11:00:00 | 3.70°C | Sudoeste |5.00 km/h | 100.00% | 0.00 hPa
  • 11-04-2019 10:00:00 | 3.20°C | Sudoeste |5.00 km/h | 99.00% | 0.00 hPa
  • 11-04-2019 09:00:00 | 3.00°C | Sudoeste |3.00 km/h | 100.00% | 0.00 hPa
  • 11-04-2019 08:00:00 | 2.70°C | Sur |3.00 km/h | 100.00% | 0.00 hPa
  • 11-04-2019 07:00:00 | 2.50°C | Oeste |5.00 km/h | 99.00% | 0.00 hPa
  • 11-04-2019 06:00:00 | 2.70°C | Sudoeste |4.00 km/h | 99.00% | 0.00 hPa
  • 11-04-2019 05:00:00 | 3.10°C | Nordeste |3.00 km/h | 95.00% | 0.00 hPa
  • 11-04-2019 04:00:00 | 3.30°C | Noroeste |4.00 km/h | 99.00% | 0.00 hPa
  • 11-04-2019 03:00:00 | 3.10°C | Calma |0.00 km/h | 99.00% | 0.00 hPa
  • 11-04-2019 02:00:00 | 3.20°C | Sudoeste |4.00 km/h | 99.00% | 0.00 hPa
  • 11-04-2019 01:00:00 | 4.50°C | Sudeste |7.00 km/h | 96.00% | 0.00 hPa
  • 11-04-2019 00:00:00 | 4.50°C | Sur |5.00 km/h | 99.00% | 0.00 hPa
  • 10-04-2019 23:00:00 | 4.50°C | Sur |4.00 km/h | 96.00% | 0.00 hPa
  • 10-04-2019 22:00:00 | 4.50°C | Oeste |5.00 km/h | 92.00% | 0.00 hPa
    • diseño web asturias Información sobre el estado de las mareas, altura de la marejada, temperatura del agua y otros datos de Gijón en Asturias.

      Surf Gijón